Location: Zagreb
(45.8000°N, 16.0000°E)
Time: 15:40:18
(UTC+01:00)

Tiros 1 despin weight - Pass Details

Date: 30 January 2020
Orbit: 594 x 642 km, 48.2° (Epoch: 24 February)

Event Time Altitude Azimuth Distance (km) Brightness Sun altitude
Rises 15:25:04 0° 287° (WNW) 2,900 ? 12.6°
Reaches altitude 10° 15:27:37 10° 276° (W) 1,999 ? 12.3°
Maximum altitude 15:31:32 28° 218° (SW) 1,194 ? 11.8°
Drops below altitude 10° 15:35:28 10° 160° (SSE) 2,012 ? 11.2°
Sets 15:38:02 0° 148° (SSE) 2,923 ? 10.9°
